Погода Красная Поляна

Погода Красная Поляна : погода сейчас, прогноз погоды и архив. Всё, что Вы хотите узнать о погоде Красная Поляна!

Поиск расширенной информации на нашем сайте:

Другие новости

Новости СМИ2

Главная страница сайта

Новости сайта

02.10.2013

Напоминаем, что на нашем новом сайте вы можете получить высокодетализированные прогнозы погоды по пунктам России, СНГ и мира (включающие важные для авиации метеовеличины, такие как направление и скорость ветра, видимость, явления погоды, количество и форма облачности, нижняя и верхняя граница облачности), а также ознакомиться с разнообразными материалами по авиационной метеорологии и подборкой полезных ссылок на эту тему.

Сайт Метеоцентр.Азия посвящён разработке технологий оптимизации авиаметеорологического обслуживания, включая проектирование и перспективное создание нескольких автоматизированных авиаметеорологических систем:
- система выпуска высокодетальных прогностических карт явлений погоды для нижнего воздушного пространства по России и ближнему зарубежью;
- система верификации прогнозов TAF (выпускаемых синоптиками официальных АМСГ РФ и ближнего зарубежья) и AUTOTAF (выпускаемых сайтом Метеоцентр.Азия) - выявление ошибок, онлайн-сопоставление с фактической погодой METAR, автоматическое внесение коррективов в прогнозы при резком отклонении фактической погоды от прогноза, подсчёт оправдываемости прогнозов по элементам и в целом;
- система обработки, анализа и отображения авиаметеорологической информации для применения провайдерами метеорологической информации.

Рекомендуем: работа вакансии бухгалтер смотреть здесь

Погода Красная Поляна - сегодня

Время (UTC), дата Ветер
(°,м/с) 
Видим.   Явления Облачность Т
(°С)
Тd
(°С)
f(%) Тe
(°С)
Pmin
(гПа)
dP
(гПа)
Po
(мм)
O2
(г/м3)
Тmin Tmax R s Состояние
почвы
00 22.03.17 тихо ()   1000 м  дымка  10/10 300 м 
[Sc diur, vesp]
+0.1 -0.3 97 1019.7  -0.2  713  287           
03 22.03.17 090 (В) 8000 м    10/10 100 м 
[Sc diur, vesp]
-1.1 -1.1 100 -1  1020.8  0.7  713  289  -1.2        замёрзшая 
06 22.03.17 110 (В) 12000 м    4/4 1000 м 
[Cu med, cong]
+2.7 -3.8 62 +3  1020.8  0.9  714  285  -1.6         
09 22.03.17 240 (ЮЗ) 20000 м    8/4 1000 м средняя, верхняя 
[Sc diur, vesp|Ac As|Ci sp]
+7.2 -3.4 47 +7  1019.1  -0.5  714  281           
12 22.03.17 240 (ЮЗ) 18000 м    10/10 660 м 
[Sc diur, vesp]
+6.1 +1.2 71 +5  1019.8  0.5  714  281           
15 22.03.17 250 (З) 19000 м  {ливн. осадки}  10/8 900 м средняя, верхняя 
[Sc diur, vesp|Ac As|Ci sp]
+4.2 +1.6 83 +5  1020.6  0.3  714  283    +9.1  0.3     
18 22.03.17 тихо ()   16000 м  {ливн. осадки}  10/10 500 м 
[Sc diur, vesp]
+3.3 +2 91 +3  1021.6  0.7  715  284           
21 22.03.17 тихо ()   14000 м    10/10 630 м 
[Sc]
+2.7 +1.8 94 +3  1022.4  0.6  715  285           
00 23.03.17 160 (Ю) 11000 м    10/10 660 м 
[Sc]
+2.6 +2 96 +3  1022.3  -0.1  715  285           
03 23.03.17 тихо ()   20000 м    10/10 800 м 
[Sc]
+2.5 +1.5 93 +3  1022.7  0.3  716  285  +2.4        влажная 
06 23.03.17 тихо ()   20000 м    9/9 750 м 
[Sc]
+3.9 +1.4 84 +4  1022.8  0.4  716  284           
09 23.03.17 220 (ЮЗ) 20000 м    4/3 600 м средняя 
[Cu hum|Ac cast]
+8.4 +1.5 62 +8  1021.3  -0.3  716  279           
12 23.03.17 230 (ЮЗ) 20000 м    3/3 800 м 
[Cu hum]
+7.9 +2.4 68 +7  1021.1  -0.3  715  280           
15 23.03.17 240 (ЮЗ) 19000 м    10/10 630 м 
[Sc]
+4.9 +2.8 86 +5  1023.3  1.4  716  283    +9       
18 23.03.17 230 (ЮЗ) 20000 м    10/10 360 м 
[Sc]
+4.3 +2.6 89 +5  1025.2  1.6  718  284           
21 23.03.17 тихо ()   18000 м    10/9 660 м верхняя 
[Sc|Ci fib]
+4 +2.8 92 +4  1025.9  0.6  718  285           
00 24.03.17 тихо ()   10 км    10/10 <0100 м верхняя 
[Sc|Ci fib]
+2.3 +1.9 97 +2  1026.5  0.1  718  287           
03 24.03.17 230 (ЮЗ) 10 км    10/10 120 м 
[Sc]
+1.5 +1.5 100 +2  1026.8  0.1  718  287  +1.2        влажная 
06 24.03.17 220 (ЮЗ) 17000 м  в посл. час туман  3/3 1000 м 
[Cu med, cong]
+3.7 +2.5 92 +5  1026.2  718  285           
09 24.03.17 240 (ЮЗ) 20000 м    1/1 1500 м 
[Cu hum]
+10 +0.3 51 +10  1023.6  -1  717  279           
12 24.03.17 230 (ЮЗ) 4{10}  20000 м    4/4 1000 м 
[Cu med, cong]
+8.8 +2.8 66 +8  1023.4  -0.4  717  279           
15 24.03.17 220 (ЮЗ) 20000 м    8/8 900 м 
[Cu med, cong]
+7.5 +2.6 71 +8  1023.9  0.1  717  281    +10.7       
18 24.03.17 020 (С) 19000 м    ясно 
+4.9 +1.9 81 +6  1024.5  717  284           
21 24.03.17 тихо ()   18000 м    ясно 
+2.7 +1.2 90 +3  1024  -1  716  286           
00 25.03.17 тихо ()   20000 м    ясно 
+1.5 +0.6 94 +2  1023.4  -0.9  716  287           
Время (UTC), дата Ветер
(°,м/с) 
Видим.   Явления Облачность Т
(°С)
Тd
(°С)
f(%) Тe
(°С)
Pmin
(гПа)
dP
(гПа)
Po
(мм)
O2
(г/м3)
Тmin Tmax R s Состояние
почвы

Для получения пояснительной информации подведите курсор к названию столбца.

ПОГОДА Красная Поляна - архив

Всё, что Вы хотите узнать о погоде Красная Поляна - удобно и подробно!

Выберите нужную дату (начиная с 1 января 2015* года) и нажмите кнопку "Найти".
Будут отображены архивные сводки погоды по пункту Красная Поляна, начиная с указанной даты.


Отображать данные в формате CSV (для использования в таблицах Excel)


Внимание! Наш архив погоды предназначен исключительно для личного некоммерческого использования в познавательных целях. Если Вам необходимы официальные справки о состоянии погоды (для производственных, юридических, коммерческих и т.п. целей), обращайтесь в органы Росгидромета.

*Примечание: данная дата относится к архиву по метеостанциям СССР (Россия, СНГ, Балтия).
Архив по метеостанциям Зарубежной Европы и Азии (кроме Китая) хранится 10 дней, по другим регионам земного шара (Китай, Африка, Америка, Австралия, Океания) - 1 день.

Красная Поляна - район местоположения метеостанции


Название, широта, долгота, высота метеостанции:
Красная Поляна 43.7°ш. 40.2°д. 568 м над ур. моря [Российская Федерация]

Дополнительная информация

В oтличие oт бoльшинства пoгoдных сайтoв мы публикуем пoдрoбную метеoинфoрмацию в детальнoм прoфессиoнальнoм фoрмате.

Характеристики температуры и влажнoсти вoздуха измеряются на высoте 2 м в тени вдали oт зданий и деревьев.
Скoрoсть ветра измеряется на высoте 10 м (на урoвне рoста челoвека скoрoсть ветра ниже в 1.5-2 раза). Если метеoстанция нахoдится в гoрoде или в лесу, тo скoрoсть ветра занижена на 2-4 м/с пo сравнению с oткрытым местoм. Скoрoсть ветра над акватoриями крупных рек и oзёр, а также на вершинах хoлмoв на 2-5 м/с выше, чем в oбычных услoвиях.
Атмoсфернoе давление в разных тoчках местнoсти мoжет значительнo oтличаться oт давления на метеoстанции, в зависимoсти oт услoвий рельефа (при пoдъёме на 10 м давление пoнижается примернo на 1 мм рт.ст.).